TimeCST,TemperatureF,Dew PointF,Humidity,Sea Level PressureIn,VisibilityMPH,Wind Direction,Wind SpeedMPH,Gust SpeedMPH,PrecipitationIn,Events,Conditions,WindDirDegrees,DateUTC
12:56 AM,73.0,68.0,84,29.99,5.0,South,12.7,-,N/A,,Haze,180,2013-01-14 06:56:00
1:56 AM,72.0,68.0,87,29.99,5.0,South,12.7,-,N/A,,Overcast,180,2013-01-14 07:56:00
2:56 AM,72.0,68.0,87,30.00,3.0,South,9.2,-,N/A,,Overcast,180,2013-01-14 08:56:00
3:23 AM,71.6,68.0,88,30.04,2.0,South,9.2,-,N/A,,Overcast,180,2013-01-14 09:23:00
3:35 AM,71.6,68.0,88,30.04,1.2,South,10.4,-,N/A,,Overcast,180,2013-01-14 09:35:00
3:56 AM,72.0,68.0,87,29.99,0.8,South,10.4,-,N/A,,Mist,170,2013-01-14 09:56:00
4:31 AM,71.6,68.0,88,30.03,1.8,South,10.4,-,0.00,Rain,Rain,180,2013-01-14 10:31:00
4:56 AM,72.0,68.0,87,30.00,1.2,South,10.4,18.4,0.00,,Overcast,170,2013-01-14 10:56:00
5:19 AM,71.6,68.0,88,30.04,0.8,South,13.8,-,N/A,,Overcast,180,2013-01-14 11:19:00
5:38 AM,71.6,68.0,88,30.05,1.0,South,10.4,-,N/A,,Overcast,190,2013-01-14 11:38:00
5:56 AM,72.0,68.0,87,30.01,0.2,South,12.7,-,0.00,Fog,Fog,180,2013-01-14 11:56:00
6:56 AM,71.1,68.0,90,30.04,1.0,South,9.2,-,N/A,,Overcast,180,2013-01-14 12:56:00
7:22 AM,71.6,68.0,88,30.09,1.5,South,8.1,-,N/A,,Mostly Cloudy,180,2013-01-14 13:22:00
7:56 AM,72.0,68.0,87,30.05,2.0,West,8.1,-,N/A,,Mostly Cloudy,260,2013-01-14 13:56:00
8:25 AM,64.4,60.8,88,30.12,2.0,NNW,3.5,-,N/A,,Overcast,330,2013-01-14 14:25:00
8:56 AM,64.0,62.1,93,30.08,1.5,NNW,3.5,-,N/A,,Overcast,330,2013-01-14 14:56:00
9:20 AM,62.6,62.6,100,30.12,2.0,North,3.5,-,N/A,,Overcast,350,2013-01-14 15:20:00
9:56 AM,64.9,63.0,93,30.07,3.0,NNW,3.5,-,N/A,,Mostly Cloudy,330,2013-01-14 15:56:00
10:16 AM,66.2,62.6,88,30.10,5.0,Calm,Calm,-,N/A,,Overcast,0,2013-01-14 16:16:00
10:56 AM,73.0,66.9,81,30.04,7.0,SSW,6.9,-,N/A,,Mostly Cloudy,210,2013-01-14 16:56:00
11:00 AM,-9999,-9999,N/A,-9999,-9999.0,North,-9999.0,-,N/A,,Unknown,0,2013-01-14 17:00:00
11:56 AM,77.0,66.0,69,30.02,10.0,South,17.3,-,N/A,,Mostly Cloudy,180,2013-01-14 17:56:00
12:56 PM,78.1,66.9,68,30.01,10.0,South,13.8,-,N/A,,Mostly Cloudy,190,2013-01-14 18:56:00
1:17 PM,75.2,66.2,73,30.05,8.0,South,15.0,-,0.00,Rain,Light Rain,180,2013-01-14 19:17:00
1:29 PM,75.2,66.2,73,30.05,9.0,South,16.1,-,0.00,,Mostly Cloudy,180,2013-01-14 19:29:00
1:56 PM,75.0,66.0,73,30.01,10.0,South,18.4,23.0,0.00,,Mostly Cloudy,170,2013-01-14 19:56:00
2:56 PM,75.9,66.0,71,30.02,8.0,South,13.8,-,N/A,,Mostly Cloudy,180,2013-01-14 20:56:00
3:56 PM,73.9,66.9,79,30.04,7.0,South,15.0,23.0,N/A,,Overcast,180,2013-01-14 21:56:00
4:56 PM,73.0,66.0,79,30.05,7.0,South,12.7,-,N/A,,Overcast,180,2013-01-14 22:56:00
5:56 PM,73.0,66.0,79,30.06,8.0,South,9.2,-,N/A,,Overcast,180,2013-01-14 23:56:00
6:56 PM,73.0,66.0,79,30.05,8.0,SSE,8.1,-,N/A,,Overcast,160,2013-01-15 00:56:00
7:38 PM,71.6,66.2,83,30.09,8.0,SW,5.8,-,0.00,Rain,Light Rain,220,2013-01-15 01:38:00
7:56 PM,72.0,66.0,81,30.04,8.0,South,9.2,-,0.00,,Overcast,180,2013-01-15 01:56:00
8:18 PM,71.6,66.2,83,30.07,6.0,SE,11.5,-,0.00,Rain,Light Rain,140,2013-01-15 02:18:00
8:56 PM,63.0,55.9,78,30.05,8.0,NNW,9.2,-,0.00,,Overcast,340,2013-01-15 02:56:00
9:56 PM,57.0,52.0,83,30.05,7.0,North,9.2,-,N/A,,Overcast,350,2013-01-15 03:56:00
10:56 PM,55.9,52.0,87,30.04,7.0,NNW,5.8,-,N/A,,Overcast,340,2013-01-15 04:56:00
11:15 PM,55.4,51.8,88,30.08,2.5,NNW,4.6,-,N/A,,Overcast,340,2013-01-15 05:15:00
11:56 PM,55.0,51.1,86,30.04,2.0,North,5.8,-,N/A,,Overcast,360,2013-01-15 05:56:00